Location: Cherry Grove
(44.1968°N, 92.8624°W)
Time: 08:28:16
(UTC-05:00)

Envisat - Visible Passes

Search period start: 23 July 2018 00:00
Search period end: 02 August 2018 00:00
Orbit: 764 x 766 km, 98.2° (Epoch: 22 July)

Date Brightness Start Highest point End Pass type
(mag) Time Alt. Az. Time Alt. Az. Time Alt. Az.
23 Jul 5.6 21:39:25 10° SW 21:42:41 17° W 21:45:58 10° NW visible
26 Jul 5.5 21:27:35 10° SW 21:31:24 21° W 21:35:16 10° NW visible
28 Jul 5.9 21:55:18 10° WSW 21:57:17 12° W 21:59:17 10° WNW visible
29 Jul 5.1 21:15:54 10° SSW 21:20:08 27° W 21:24:25 10° NW visible
31 Jul 5.7 21:43:00 10° SW 21:45:58 16° W 21:48:58 10° NW visible
01 Aug 4.8 21:04:21 10° SSW 21:08:54 33° W 21:13:29 10° NNW visible
